Weather observations for the past three days for
Newberry, Luce County Airport
Imperial (Metric)
Date Time (edt) Wind (mph) Vis. (mi.) Weather Sky Cond. Temperature (ºF) Relative Humidity Wind Chill (°F) Heat Index (°F) Pressure Precipitation (in)
Air Dwpt 6 hour altimeter (in) sea level (mb) 1 hr 3 hr 6 hr
Max. Min.
03 08:55 N 2 10.00 A Few Clouds FEW060 64.4 59 83% 29.98 0.0
03 08:35 N 1 10.00 Mostly Cloudy BKN060 62.6 59 88% 29.98 0.0
03 08:15 SW 2 10.00 A Few Clouds FEW060 59 57.2 94% 29.99 0.0
03 07:55 Vrbl 1 10.00 Fair CLR 55.4 55.4 63 54.1 100% 29.98 0.0
03 07:35 Calm 10.00 Fair CLR 55.4 53.6 94% 29.96 0.0
03 07:15 W 2 10.00 Fair CLR 55.4 53.6 94% 29.97 0.0
03 06:55 NW 1 10.00 Partly Cloudy SCT070 55.4 55.4 100% 29.96 0.0
03 06:35 SW 1 10.00 Overcast OVC070 55.4 55.4 100% 29.96 0.0
03 06:15 SW 2 10.00 Mostly Cloudy BKN070 57.2 55.4 94% 29.96 0.0
03 05:55 NW 3 10.00 Partly Cloudy SCT070 57.2 55.4 94% 29.96 0.0
03 05:35 N 3 10.00 Overcast OVC070 59 57.2 94% 29.96 0.0
03 05:15 Vrbl 1 10.00 Overcast OVC070 59 57.2 94% 29.96 0.0
03 04:55 W 3 10.00 Mostly Cloudy BKN070 57.2 57.2 100% 29.96 0.0
03 04:35 W 2 10.00 Mostly Cloudy BKN070 57.2 57.2 100% 29.96 0.0
03 04:15 SW 3 10.00 Overcast OVC070 59 57.2 94% 29.95 0.0
03 03:55 W 2 10.00 Overcast OVC070 59 57.2 94% 29.95 0.0
03 03:35 W 2 10.00 Overcast OVC070 59 57.2 94% 29.95 0.0
03 03:15 W 1 10.00 Partly Cloudy FEW060 SCT075 59 57.2 94% 29.95 0.0
03 02:55 NW 3 10.00 Overcast OVC075 60.8 57.2 88% 29.94 0.0
03 02:35 NW 3 10.00 Overcast OVC075 62.6 57.2 83% 29.95 0.0
03 02:15 NW 2 10.00 Overcast OVC075 62.6 57.2 83% 29.95 0.0
03 01:55 NW 3 10.00 Overcast BKN070 OVC075 62.6 57.2 69.6 61.5 83% 29.95 0.0
03 01:35 NW 3 10.00 Overcast OVC060 62.6 59 88% 29.95 0.0
03 01:15 NW 5 10.00 Overcast OVC060 62.6 59 88% 29.94 0.0
03 00:55 NW 6 10.00 Overcast OVC060 64.4 59 83% 29.94 0.0
03 00:35 N 5 10.00 Overcast OVC060 64.4 59 83% 29.94 0.0
03 00:15 NW 5 10.00 Overcast OVC050 64.4 59 83% 29.94 0.0
02 23:55 NW 5 10.00 Overcast OVC050 64.4 59 83% 29.94 0.0
02 23:35 NW 5 10.00 Overcast OVC050 66.2 59 78% 29.93 0.0
02 23:15 NW 3 10.00 Overcast OVC050 64.4 60.8 88% 29.93 0.0
02 22:55 Calm 10.00 Overcast OVC048 62.6 59 88% 29.93 0.0
02 22:35 Calm 10.00 Mostly Cloudy BKN048 62.6 59 88% 29.93 0.0
02 22:15 N 3 10.00 Fair CLR 64.4 59 83% 29.92 0.0
02 21:55 N 5 10.00 A Few Clouds FEW050 FEW060 66.2 59 78% 29.93 0.0
02 21:35 N 6 10.00 Partly Cloudy SCT050 SCT060 66.2 59 78% 29.92 0.0
02 21:15 N 5 10.00 Partly Cloudy SCT060 66.2 59 78% 29.92 0.0
02 20:55 N 5 10.00 Overcast OVC060 66.2 59 78% 29.91 0.0
02 20:35 N 3 10.00 Mostly Cloudy BKN060 BKN070 68 59 73% 29.91 0.0
02 20:15 N 3 10.00 Overcast OVC060 68 59 73% 29.91 0.0
02 19:55 N 3 10.00 Overcast OVC060 69.8 59 82.6 69.6 69% 29.91 0.0
02 19:35 N 6 10.00 Overcast OVC060 71.6 59 65% 29.91 0.0
02 19:15 N 7 10.00 Overcast OVC060 73.4 59 61% 29.9 0.0
02 18:55 N 8 10.00 A Few Clouds FEW060 75.2 57.2 54% 78 29.9 0.0
02 18:35 NW 9 10.00 A Few Clouds FEW055 77 57.2 51% 79 29.89 0.0
02 18:15 NW 9 10.00 A Few Clouds FEW055 78.8 57.2 48% 80 29.89 0.0
02 17:55 NW 10 10.00 Fair CLR 80.6 55.4 42% 81 29.89 0.0
02 17:35 NW 9 G 17 10.00 A Few Clouds FEW055 80.6 55.4 42% 81 29.89 0.0
02 17:15 NW 12 G 18 10.00 Partly Cloudy SCT055 82.4 55.4 40% 82 29.89 0.0
02 16:55 NW 8 G 16 10.00 Mostly Cloudy BKN065 78.8 55.4 45% 79 29.89 0.0
02 16:35 W 9 10.00 Mostly Cloudy BKN050 80.6 55.4 42% 81 29.89 0.0
02 16:15 W 8 10.00 Mostly Cloudy BKN050 BKN060 80.6 57.2 45% 81 29.89 0.0
02 15:55 SW 9 G 18 10.00 Mostly Cloudy SCT050 BKN065 80.6 59 48% 81 29.9 0.0
02 15:35 W 9 G 18 10.00 Mostly Cloudy BKN045 80.6 59 48% 81 29.9 0.0
02 15:15 SW 12 10.00 Overcast OVC043 80.6 60.8 51% 81 29.91 0.0
02 14:55 W 13 G 17 10.00 Mostly Cloudy BKN041 BKN048 78.8 60.8 54% 80 29.91 0.0
02 14:35 W 12 10.00 Fair CLR 77 59 54% 79 29.9 0.0
02 14:15 NW 9 10.00 A Few Clouds FEW036 77 59 54% 79 29.9 0.0
02 13:55 W 8 10.00 Partly Cloudy FEW032 SCT040 77 60.8 77.4 64 57% 79 29.9 0.0
02 13:35 W 10 10.00 A Few Clouds FEW030 77 62.6 61% 79 29.9 0.0
02 13:15 W 8 10.00 A Few Clouds FEW030 75.2 62.6 65% 77 29.9 0.0
02 12:55 W 12 10.00 Fair CLR 73.4 62.6 69% 29.91 0.0
02 12:35 W 7 10.00 Fair CLR 71.6 62.6 73% 29.91 0.0
02 12:15 W 7 10.00 Fair CLR 68 64.4 88% 29.92 0.0
02 11:55 W 7 10.00 Fair CLR 68 62.6 83% 29.91 0.0
02 11:35 W 6 10.00 A Few Clouds FEW120 68 62.6 83% 29.91 0.0
02 11:15 SW 8 10.00 Mostly Cloudy FEW055 SCT100 BKN120 66.2 62.6 88% 29.92 0.0
02 10:55 SW 9 10.00 Light Rain SCT055 BKN095 OVC120 66.2 62.6 88% 29.91 0.0 0.01
02 10:35 W 3 10.00 Light Rain SCT048 BKN085 OVC110 66.2 62.6 88% 29.9 0.0
02 10:15 W 3 10.00 Light Rain SCT050 BKN075 OVC095 64.4 62.6 94% 29.89 0.0
02 09:55 NE 2 10.00 Light Rain OVC095 64.4 62.6 94% 29.87 0.0
02 09:35 Vrbl 2 10.00 Light Rain OVC110 64.4 60.8 88% 29.89 0.0
02 09:15 SW 8 10.00 Light Rain SCT100 OVC120 64.4 60.8 88% 29.93 0.0
02 08:55 SW 10 10.00 Overcast OVC100 64.4 60.8 88% 29.94 0.0
02 08:35 SW 10 10.00 Overcast OVC100 64.4 60.8 88% 29.94 0.0
02 08:15 W 12 10.00 Overcast OVC100 64.4 59 83% 29.94 0.0
02 07:55 W 9 10.00 Overcast OVC110 64.4 59 69.1 61.2 83% 29.91 0.0
02 07:35 W 5 10.00 Overcast OVC110 64.4 59 83% 29.9 0.0
02 07:15 W 5 10.00 Mostly Cloudy BKN120 64.4 59 83% 29.89 0.0
02 06:55 W 5 10.00 Fair CLR 62.6 59 88% 29.88 0.0
02 06:35 W 3 10.00 Fair CLR 64.4 59 83% 29.88 0.0
02 06:15 W 5 10.00 Fair CLR 64.4 60.8 88% 29.9 0.0
02 05:55 SW 3 10.00 Fair CLR 62.6 60.8 94% 29.89 0.0
02 05:35 SW 6 10.00 Fair CLR 64.4 60.8 88% 29.89 0.0
02 05:15 W 3 10.00 Fair CLR 62.6 62.6 100% 29.88 0.0
02 04:55 SW 3 8.00 Fair CLR 62.6 60.8 94% 29.88 0.0
02 04:35 SW 3 5.00 Fog/Mist CLR 60.8 60.8 100% 29.88 0.0
02 04:15 SW 2 4.00 Fog/Mist CLR 60.8 60.8 100% 29.87 0.0
02 03:55 SW 2 9.00 Fair CLR 60.8 60.8 100% 29.88 0.0
02 03:35 SW 3 5.00 Fog/Mist CLR 60.8 60.8 100% 29.88 0.0
02 03:15 SW 2 10.00 Fair CLR 62.6 62.6 100% 29.87 0.0
02 02:55 W 3 10.00 Fair CLR 64.4 62.6 94% 29.87 0.0
02 02:35 NW 5 10.00 Fair CLR 68 62.6 83% 29.87 0.0
02 02:15 NW 5 10.00 Fair CLR 68 64.4 88% 29.87 0.0
02 01:55 NW 5 10.00 Fair CLR 69.8 64.4 75.4 67.3 83% 29.88 0.0
02 01:35 NW 6 7.00 Fog/Mist CLR 68 68 100% 29.88 0.0
02 01:15 SW 3 0.50 Fog VV005 68 68 100% 29.88 0.0
02 00:55 W 2 0.50 Fog SCT002 68 68 100% 29.87 0.0
02 00:35 SW 3 1.00 Fog/Mist OVC002 69.8 69.8 100% 29.87 0.0
02 00:15 SW 3 1.50 Fog/Mist OVC002 69.8 69.8 100% 29.87 0.0
01 23:55 SW 3 2.00 Fog/Mist OVC002 69.8 69.8 100% 29.88 0.0
01 23:35 SW 6 3.00 Fog/Mist OVC004 69.8 69.8 100% 29.87 0.0
01 23:15 S 3 4.00 Fog/Mist OVC004 69.8 69.8 100% 29.87 0.0
01 22:55 SW 7 4.00 Fog/Mist OVC002 69.8 69.8 100% 29.87 0.0
01 22:35 SW 10 5.00 Fog/Mist OVC002 71.6 69.8 94% 29.88 0.0
01 22:15 W 7 9.00 Overcast OVC006 71.6 69.8 94% 29.87 0.0
01 21:55 W 8 10.00 A Few Clouds FEW008 71.6 69.8 94% 29.86 0.0
01 21:35 S 7 10.00 Fair CLR 71.6 69.8 94% 29.85 0.0
01 21:15 S 7 10.00 Fair CLR 71.6 69.8 94% 29.86 0.0
01 20:55 S 7 10.00 Fair CLR 73.4 69.8 89% 29.86 0.0
01 20:35 S 7 10.00 Fair CLR 73.4 69.8 89% 29.85 0.0
01 20:15 SW 8 10.00 Fair CLR 73.4 69.8 89% 29.87 0.0
01 19:55 S 10 10.00 Fair CLR 75.2 69.8 83.3 75.4 83% 75 29.86 0.0
01 19:35 S 9 10.00 Fair CLR 77 69.8 79% 79 29.86 0.0
01 19:15 S 7 10.00 Fair CLR 78.8 68 70% 81 29.87 0.0
01 18:55 S 9 10.00 Fair CLR 80.6 68 66% 83 29.87 0.0
01 18:35 S 10 10.00 Fair CLR 80.6 69.8 70% 84 29.87 0.0
01 18:15 S 9 10.00 Fair CLR 82.4 69.8 66% 86 29.87 0.0
01 17:55 S 9 10.00 Fair CLR 80.6 69.8 70% 84 29.88 0.0
01 17:35 S 8 10.00 Fair CLR 82.4 69.8 66% 86 29.87 0.0
01 17:15 SW 13 10.00 Fair CLR 82.4 68 62% 85 29.88 0.0
01 16:55 S 12 10.00 Fair CLR 82.4 69.8 66% 86 29.88 0.0
01 16:35 SW 10 10.00 Fair CLR 82.4 69.8 66% 86 29.88 0.0
01 16:15 S 12 10.00 Fair CLR 82.4 69.8 66% 86 29.88 0.0
01 15:55 S 12 10.00 Fair CLR 82.4 69.8 66% 86 29.89 0.0
01 15:35 SW 13 10.00 Fair CLR 82.4 69.8 66% 86 29.89 0.0
01 15:15 SW 13 10.00 Fair CLR 82.4 69.8 66% 86 29.89 0.0
01 14:55 S 10 10.00 Fair CLR 82.4 66.2 58% 85 29.9 0.0
01 14:35 S 14 10.00 Fair CLR 82.4 66.2 58% 85 29.91 0.0
01 14:15 S 9 10.00 Fair CLR 80.6 66.2 62% 83 29.92 0.0
01 13:55 S 8 10.00 Fair CLR 80.6 66.2 80.1 64 62% 83 29.92 0.0
01 13:35 SW 12 10.00 Fair CLR 78.8 66.2 65% 81 29.93 0.0
01 13:15 SW 12 10.00 Fair CLR 78.8 66.2 65% 81 29.93 0.0
01 12:55 SW 9 10.00 Fair CLR 78.8 68 70% 81 29.94 0.0
01 12:35 S 9 10.00 Fair CLR 77 69.8 79% 79 29.94 0.0
01 12:15 SW 7 10.00 Fair CLR 77 69.8 79% 79 29.94 0.0
01 11:55 SW 7 10.00 Fair CLR 77 71.6 83% 78 29.94 0.0
01 11:35 Vrbl 6 10.00 A Few Clouds FEW007 75.2 69.8 83% 75 29.94 0.0
01 11:15 Vrbl 3 10.00 Mostly Cloudy BKN005 73.4 69.8 89% 29.94 0.0
01 10:55 S 3 10.00 Overcast OVC001 69.8 69.8 100% 29.93 0.0
01 10:35 SE 2 1.75 Fog/Mist OVC001 68 68 100% 29.93 0.0
01 10:15 S 3 0.15 Fog VV000 66.2 66.2 100% 29.93 0.0
01 09:55 SE 3 0.15 Fog VV000 66.2 66.2 100% 29.93 0.0
01 09:35 S 5 0.15 Fog VV000 66.2 66.2 100% 29.93 0.0
01 09:15 Calm 0.15 Fog VV000 66.2 66.2 100% 29.94 0.0
01 08:55 NE 5 0.15 Fog VV000 64.4 64.4 100% 29.94 0.0
01 08:35 N 3 0.15 Fog VV000 64.4 64.4 100% 29.94 0.0
01 08:15 W 1 0.15 Fog VV000 64.4 64.4 100% 29.93 0.0
01 07:55 S 2 0.15 Fog VV000 64.4 64.4 66.9 63.7 100% 29.93 0.0
01 07:35 S 2 0.15 Fog VV000 64.4 64.4 100% 29.92 0.0
01 07:15 SE 2 0.15 Fog VV000 64.4 64.4 100% 29.92 0.0
01 06:35 Calm 0.15 Fog VV000 64.4 64.4 100% 29.91 0.0
01 06:15 Vrbl 1 0.15 Fog VV000 64.4 64.4 100% 29.92 0.0
01 05:55 NW 1 0.15 Fog VV000 64.4 64.4 100% 29.92 0.0
01 05:35 SW 2 0.15 Fog VV000 64.4 64.4 100% 29.92 0.0
01 05:15 S 2 0.15 Fog VV000 64.4 64.4 100% 29.91 0.0
01 04:55 Calm 0.25 Fog VV002 64.4 64.4 100% 29.91 0.0
01 04:35 W 3 0.25 Fog VV002 64.4 64.4 100% 29.91 0.0
01 04:15 SW 3 0.15 Fog VV000 66.2 66.2 100% 29.9 0.0
01 03:55 SW 3 0.15 Fog VV000 66.2 66.2 100% 29.9 0.0
01 03:35 SW 3 0.15 Fog VV000 66.2 66.2 100% 29.9 0.0
01 03:15 Vrbl 2 0.25 Fog VV002 66.2 66.2 100% 29.9 0.0
01 02:55 SW 3 0.25 Fog VV002 66.2 66.2 100% 29.9 0.0
01 02:35 SW 5 0.50 Fog VV005 66.2 66.2 100% 29.89 0.0
01 02:15 W 5 0.50 Fog BKN002 66.2 66.2 100% 29.9 0.0
01 01:55 SW 5 0.50 Fog BKN002 66.2 66.2 73.8 66.9 100% 29.89 0.0
01 01:35 S 6 1.25 Fog/Mist OVC002 68 66.2 94% 29.89 0.0
01 01:15 S 8 4.00 Fog/Mist OVC002 68 68 100% 29.89 0.0
01 00:55 S 7 7.00 Fog/Mist OVC004 68 68 100% 29.89 0.0
01 00:35 S 9 9.00 Overcast OVC004 69.8 68 94% 29.89 0.0
01 00:15 S 3 9.00 Overcast OVC004 69.8 68 94% 29.9 0.0
31 23:55 S 3 9.00 Overcast OVC004 69.8 68 94% 29.89 0.0
31 23:35 SE 3 9.00 Overcast OVC004 69.8 68 94% 29.89 0.0
31 23:15 SE 5 9.00 Overcast OVC006 69.8 68 94% 29.89 0.0
31 22:55 SE 3 10.00 Overcast OVC006 69.8 68 94% 29.89 0.0
31 22:35 E 7 10.00 Overcast OVC008 69.8 68 94% 29.89 0.0
31 22:15 E 5 10.00 Overcast OVC008 69.8 68 94% 29.9 0.0
31 21:55 E 5 10.00 Overcast OVC008 71.6 68 88% 29.9 0.0
31 21:35 E 7 10.00 Overcast BKN008 BKN014 OVC023 71.6 68 88% 29.89 0.0
31 21:15 SE 3 10.00 Overcast SCT012 OVC022 71.6 68 88% 29.89 0.0
31 20:55 SE 7 10.00 Overcast OVC012 71.6 69.8 94% 29.89 0.0
31 20:35 E 6 10.00 Overcast SCT012 OVC025 73.4 69.8 89% 29.88 0.0
31 20:15 SE 5 10.00 Overcast OVC027 73.4 69.8 89% 29.88 0.0
31 19:55 SE 9 10.00 Overcast SCT023 OVC029 73.4 69.8 80.6 73.8 89% 29.87 0.0
31 19:35 SE 7 10.00 Overcast OVC021 73.4 69.8 89% 29.87 0.0
31 19:15 SE 10 10.00 Overcast OVC021 75.2 69.8 83% 75 29.86 0.0
31 18:35 SE 6 10.00 Mostly Cloudy FEW020 BKN055 BKN070 77 69.8 79% 79 29.86 0.0
31 18:15 SE 6 10.00 Overcast FEW020 BKN055 OVC070 77 69.8 79% 79 29.87 0.0
31 17:55 S 6 10.00 Overcast SCT029 OVC065 77 68 74% 79 29.87 0.0
31 17:35 S 7 10.00 Overcast OVC029 77 68 74% 79 29.87 0.0
31 17:15 SE 8 10.00 Overcast FEW020 OVC029 77 68 74% 79 29.86 0.0
31 16:55 S 8 10.00 Overcast OVC029 77 68 74% 79 29.86 0.0
31 16:35 S 8 10.00 Overcast OVC027 77 68 74% 79 29.86 0.0
31 16:15 S 10 10.00 Overcast OVC025 78.8 68 70% 81 29.86 0.0
31 15:55 S 7 10.00 Overcast OVC025 78.8 68 70% 81 29.87 0.0
31 15:35 S 12 10.00 Overcast BKN023 BKN035 OVC070 78.8 68 70% 81 29.88 0.0
31 15:15 S 8 10.00 Overcast BKN023 BKN027 OVC070 80.6 69.8 70% 84 29.89 0.0
31 14:55 S 9 10.00 Overcast BKN019 OVC028 78.8 69.8 74% 81 29.89 0.0
31 14:35 SE 9 9.00 Overcast BKN017 OVC075 78.8 69.8 74% 81 29.88 0.0
31 14:15 SE 7 10.00 Overcast BKN015 OVC019 77 69.8 79% 79 29.89 0.0
31 13:55 Vrbl 7 10.00 Overcast BKN010 OVC014 75.2 68 75.2 65.7 78% 76 29.9 0.0
31 13:35 S 8 10.00 Overcast OVC006 73.4 69.8 89% 29.91 0.0
31 13:15 S 10 10.00 Overcast OVC006 73.4 69.8 89% 29.91 0.0
31 12:55 SE 9 10.00 Overcast OVC004 71.6 68 88% 29.91 0.0
31 12:35 SE 10 10.00 Overcast OVC004 69.8 68 94% 29.91 0.0
31 12:15 SE 8 8.00 Overcast OVC004 68 66.2 94% 29.92 0.0
31 11:55 E 7 10.00 Overcast OVC002 68 66.2 94% 29.92 0.0
31 11:35 E 8 7.00 Fog/Mist OVC002 66.2 66.2 100% 29.92 0.0
31 11:15 E 7 4.00 Fog/Mist OVC002 66.2 66.2 100% 29.93 0.0
31 10:55 E 9 2.50 Fog/Mist OVC002 66.2 66.2 100% 29.92 0.0
31 10:35 SE 6 1.75 Fog/Mist OVC002 66.2 66.2 100% 29.94 0.0
31 10:15 E 8 1.25 Fog/Mist OVC002 66.2 66.2 100% 29.94 0.0
31 09:55 E 7 1.75 Fog/Mist OVC002 66.2 66.2 100% 29.94 0.0
31 09:35 SE 8 2.50 Fog/Mist OVC002 66.2 66.2 100% 29.94 0.0
31 09:15 SE 9 4.00 Fog/Mist OVC002 66.2 64.4 94% 29.94 0.0
Date Time (edt) Wind (mph) Vis. (mi.) Weather Sky Cond. Air Dwpt Max. Min. Relative Humidity Wind Chill (°F) Heat Index (°F) altimeter (in) sea level (mb) 1 hr 3 hr 6 hr
6 hour
Temperature (ºF) Pressure Precipitation (in)